Flag for Switzerland Weather past 2 weeks in Olten, Solothurn, Switzerland

Now
63 °F

Mild.


Feels Like: 63 °F
Forecast: 59 / 76 °F
Wind: No wind

Location: Wynau

Current Time: Jul 23, 2014 at 6:04:47 AM

Latest Report: Jul 23, 2014 at 5:00 AM


Visibility: N/A

Pressure: 29.98 "Hg

Humidity: 100%

Dew point: 63 °F

Location of OltenLocation

Historic Weather in Olten — Graph

°F

Olten temperature yesterday

Maximum temperature yesterday: 65 °F (at 2:00 PM)
Minimum temperature yesterday: 60 °F (at 1:00 AM)
Average temperature yesterday: 63 °F

Past Weeks' High & Low Weather Summary

 TemperatureHumidityPressure
High88 °F (Jul 18, 5:00 PM)100% (Jul 23, 1:00 AM)30.22 "Hg (Jul 23, 1:00 AM)
Low50 °F (Jul 10, 6:00 AM)27% (Jul 18, 7:00 PM)29.82 "Hg (Jul 20, 12:00 AM)
Average64 °F82%29.99 "Hg
* Reported Jul 8 4:00 AM — Jul 23 4:00 AM, Olten, Weather by CustomWeather, © 2014

Note: Actual official high and low records may vary slightly from our data, if they occured in-between our weather recording intervals... More about our weather records

Advertising

Olten weather history for previous 24 hours

 ConditionsComfort  
Time TempWeatherWind HumidityBarometerVisibility
4:00 AM
Jul 23
63 °FMild.1 mph100%29.98 "HgN/A
3:00 AM64 °FMild.2 mph100%29.98 "HgN/A
2:00 AM64 °FMild.1 mph100%30.00 "HgN/A
1:00 AM64 °FMild.1 mph100%30.01 "HgN/A
6:00 PM
Jul 22
65 °FMild.3 mph98%29.97 "HgN/A
5:00 PM65 °FMild.3 mph97%29.97 "HgN/A
4:00 PM65 °FMild.3 mph98%29.97 "HgN/A
3:00 PM65 °FMild.5 mph96%29.96 "HgN/A
2:00 PM65 °FMild.5 mph92%29.96 "HgN/A
1:00 PM65 °FMild.5 mph96%29.96 "HgN/A
12:00 PM64 °FMild.5 mph97%29.96 "HgN/A
11:00 AM64 °FMild.6 mph96%29.95 "HgN/A
10:00 AM63 °FMild.6 mph97%29.95 "HgN/A
9:00 AM62 °FMild.3 mph98%29.95 "HgN/A
8:00 AM62 °FCool.3 mph99%29.94 "HgN/A
7:00 AM61 °FCool.2 mph99%29.94 "HgN/A
6:00 AM61 °FCool.3 mph99%29.94 "HgN/A
Weather by CustomWeather, © 2014

See weather overviewHow to use our weather pages